User: anonymous   Login
Location: Unspecified
(0.0000°N, 0.0000°E)
Time: 07:46:10
(UTC+00:00)
Language:

STARLINK-5772 - Orbit

View from above orbital plane
View from above orbital plane
View from above satellite
View from above satellite

Ground track
Ground track

The orbit is defined by the following mean orbital elements,

1 56024U          26145.55477389 +.00000000 +00000-0 +44406-5 0 00009
2 56024  43.0038 330.9041 0001055 270.9420  89.1311 15.27574137    07
Epoch (UTC): 25 May 2026 13:18:52
Eccentricity: 0.0001055
inclination: 43.0038°
perigee height: 482 km
apogee height: 484 km
right ascension of ascending node: 330.9041°
argument of perigee: 270.9420°
revolutions per day: 15.27574137
mean anomaly at epoch: 89.1311°

The dashed part of the orbit path shows where the satellite is in the earth's shadow,  

DLR